Regional Weather Roundup
Issued by NWS Albany, NY

Home | Current Version | Previous Version | Text Only | Print | Product List | Glossary On
Versions: 1 2 3 4 5 6 7 8 9 10 11 12 13 14 15 16 17 18 19 20 21 22 23 24 25 26 27 28 29 30 31 32 33 34 35 36 37 38 39 40 41 42 43 44 45 46 47 48 49 50
000
ASUS41 KALY 151910
RWRALY

NEW YORK STATE HOURLY WEATHER ROUNDUP
NATIONAL WEATHER SERVICE ALBANY NY
300 PM EDT MON SEP 15 2014

NOTE: "FAIR" INDICATES FEW OR NO CLOUDS BELOW 12,000 FEET WITH NO
SIGNIFICANT WEATHER AND/OR NO OBSTRUCTIONS TO VISIBILITY.

NYZ032-033-038>043-046>054-057>066-NYZ062>081-152000-
EAST


CITY           SKY/WX    TMP DP  RH WIND       PRES   REMARKS
ALBANY         MOSUNNY   65  40  39 NE6       30.16F
GLENS FALLS    SUNNY     64  41  42 S6        30.15F
POUGHKEEPSIE   MOSUNNY   70  43  37 VRB3      30.14F
NEWBURGH       MOSUNNY   66  46  48 VRB5      30.17F
MONTGOMERY     SUNNY     69  45  41 SW8       30.15F
WHITE PLAINS   MOSUNNY   69  42  37 N6        30.15F
ISLIP          MOSUNNY   69  42  37 N9        30.14F
NEW YORK CITY  MOSUNNY   71  41  33 W7        30.14F
CENTRAL PARK   SUNNY     71  41  33 VRB3      30.17F
$$

NYZ005>009-017-018-044>046-055-056-152000-
CENTRAL


CITY           SKY/WX    TMP DP  RH WIND       PRES   REMARKS
FULTON         MOSUNNY   66  45  46 VRB5      30.12F
SYRACUSE       MOSUNNY   69  44  40 W7        30.11F
ROME           MOSUNNY   65  42  43 VRB3      30.14F
ELMIRA         SUNNY     68  46  45 VRB3      30.12F
BINGHAMTON     SUNNY     63  44  50 SW8       30.14F
MONTICELLO     MOSUNNY   64  45  48 W9        30.17F
$$

NYZ026>034-041>043-152000-
NORTH


CITY           SKY/WX    TMP DP  RH WIND       PRES   REMARKS
WATERTOWN      MOSUNNY   66  45  46 SW12G20   30.10F
FORT DRUM      NOT AVBL
MASSENA        MOSUNNY   65  45  48 SW14G21   30.09F
SARANAC LAKE   SUNNY     59  39  47 SW8       30.11F
PLATTSBURGH    MOSUNNY   62  43  49 SE16      30.12F
$$

NYZ001>004-010>016-019>021-152000-
WEST


CITY           SKY/WX    TMP DP  RH WIND       PRES   REMARKS
NIAGARA FALLS  CLOUDY    62  46  55 SW10      30.11F
BUFFALO        CLOUDY    63  46  54 W13       30.12F
DUNKIRK        CLOUDY    63  48  58 W12       30.12F
JAMESTOWN      PTSUNNY   61  46  59 S7        30.13F
WELLSVILLE     MOSUNNY   62  45  53 VRB6      30.14F
ROCHESTER      CLOUDY    68  47  46 SW9       30.10F
PENN YAN       MOSUNNY   67  48  50 S9        30.12F
$$

             KEY
       WCI = WIND CHILL INDEX
       VSB = VISIBILITY
       HX  = HEAT INDEX
$$



USA.gov is the U.S. government's official web portal to all federal, state and local government web resources and services.